Flag for Peru Weather past 2 weeks in Arequipa, Arequipa, Peru

Now
59 °F

Passing clouds.


Feels Like: 58 °F
Forecast: 52 / 74 °F
Wind: 6 mph from Southeast

Location: Arequipa Airport

Current Time: Jul 30, 2014 at 1:20:11 AM

Latest Report: Jul 30, 2014 at 1:00 AM


Visibility: N/A

Pressure: 30.39 "Hg

Humidity: 18%

Dew point: 16 °F

Location of ArequipaLocation

Historic Weather in Arequipa — Graph

°F

Arequipa temperature yesterday

Maximum temperature yesterday: 75 °F (at 12:00 PM)
Minimum temperature yesterday: 50 °F (at 6:00 AM)
Average temperature yesterday: 62 °F

Past Weeks' High & Low Weather Summary

 TemperatureHumidityPressure
High75 °F (Jul 29, 12:00 PM)64% (Jul 20, 9:00 AM)30.39 "Hg (Jul 20, 9:00 AM)
Low45 °F (Jul 23, 6:00 AM)4% (Jul 24, 11:00 AM)30.18 "Hg (Jul 24, 2:00 PM)
Average59 °F16%30.32 "Hg
* Reported Midnight between Jul 14 and Jul 15 — Midnight between Jul 29 and Jul 30, Arequipa, Weather by CustomWeather, © 2014

Note: Actual official high and low records may vary slightly from our data, if they occured in-between our weather recording intervals... More about our weather records

Advertising

Arequipa weather history for previous 24 hours

 ConditionsComfort  
Time TempWeatherWind HumidityBarometerVisibility
12:00 AM
Jul 30
59 °FPassing clouds.6 mph18%30.39 "HgN/A
11:00 PM
Jul 29
61 °FPassing clouds.2 mph20%30.39 "HgN/A
10:00 PM63 °FPassing clouds.7 mph17%30.39 "HgN/A
9:00 PM61 °FPassing clouds.5 mph16%30.39 "HgN/A
8:00 PM63 °FPassing clouds.8 mph14%30.39 "HgN/A
7:00 PM61 °FPassing clouds.3 mph12%30.36 "HgN/A
6:00 PM64 °FPassing clouds.3 mph13%30.33 "HgN/A
5:00 PM66 °FScattered clouds.7 mph12%30.33 "HgN/A
4:00 PM68 °FPartly sunny.8 mph12%30.30 "HgN/A
3:00 PM68 °FScattered clouds.12 mph11%30.30 "HgN/A
2:00 PM68 °FScattered clouds.16 mph12%30.33 "HgN/A
1:00 PM73 °FPassing clouds.12 mph10%30.33 "HgN/A
12:00 PM75 °FSunny.6 mph10%30.36 "Hg10 mi
11:00 AM72 °FPassing clouds.6 mph13%30.39 "HgN/A
10:00 AM70 °FScattered clouds.7 mph11%30.39 "HgN/A
9:00 AM64 °FScattered clouds.9 mph12%30.36 "HgN/A
8:00 AM64 °FScattered clouds.18 mph13%30.36 "HgN/A
7:00 AM54 °FSunny.13 mph21%30.33 "Hg10 mi
6:00 AM50 °FClear.6 mph24%30.33 "Hg10 mi
5:00 AM52 °FClear.7 mph22%30.33 "Hg10 mi
4:00 AM52 °FClear.8 mph20%30.33 "Hg10 mi
3:00 AM54 °FClear.7 mph21%30.33 "Hg10 mi
2:00 AM55 °FClear.8 mph18%30.33 "Hg10 mi
1:00 AM59 °FClear.12 mph16%30.36 "Hg10 mi
Weather by CustomWeather, © 2014

See weather overviewHow to use our weather pages